Погода в Зелёном

Россия / Республика Крым     44°35′44″N   34°00′43″E
темп.,
°C
ветер,
м/с
пор.,
м/с
влажн.,
%
обл.,
%
осадки,
мм/ч
давл.,
гПа
погр.,
м
13 апреля, вт
вт1300:00+5вюв229567 0.0 102260
03:00+3ююз119599 0.1 102210
06:00+3всв0195100 0.0 102211
09:00+7ююв228799 0.1 1022476
12:00+8ю2280100 0.1 1021550
15:00+7ююз2285100 0.2 1021322
18:00+6ююв2286100 0.0 1021301
21:00+4вюв239531 0.0 102174
14 апреля, ср
ср1400:00+3вюв33905 0.0 102164
03:00+3вюв34835 0.0 102062
06:00+3в358459 0.0 101886
09:00+7вюв4766100 0.0 1018444
12:00+9вюв4658100 0.0 1017691
15:00+9вюв3463100 0.0 1016514
18:00+6в3486100 0.8 1016133
21:00+6вюв358834 0.8 1016116
15 апреля, чт
чт1500:00+5вюв348957 0.0 101570
03:00+7ююв228499 0.1 101532
06:00+6ю2394100 0.4 1015158
09:00+7юз369285 0.6 1016524
12:00+9з58701 0.0 1016742
15:00+9з576512 0.0 1016830
18:00+9зсз3561100 0.0 1016644
21:00+5ссз238699 0.0 101759
16 апреля, пт
пт1600:00+4зюз3378100 0.0 101873
03:00+3зсз22803 0.0 101838
06:00+2ссз22751 0.0 101825
09:00+7юз23576 0.0 1018807
12:00+8зюз566223 0.0 10181171
15:00+8зюз57626 0.0 10181034
18:00+7з47612 0.0 1019804
21:00+3зсз22860 0.0 102052
17 апреля, сб
сб1700:00+2сз22740 0.0 102129
03:00+2с226951 0.0 102120
06:00+2всв1164100 0.0 102116
09:00+7вюв225290 0.0 1020485
12:00+9вюв2249100 0.0 1020917
15:00+10в2352100 0.0 10191092
18:00+9в2359100 0.0 1019493
21:00+5всв2372100 0.0 102183